User: anonymous   Login
Location: Caltech
(34.1382°N, 118.1253°W)
Time: 04:04:09
(UTC-07:00)
Language:

HO-68 - Orbit

View from above orbital plane
View from above orbital plane
View from above satellite
View from above satellite

Ground track
Ground track

The orbit data is extracted from the following two-line orbital elements,

1 36122U 09072B   17291.16443131 -.00000001  00000-0  10882-3 0  9999
2 36122 100.0931 311.9851 0006987 315.1714  44.8835 13.16341712376805
Epoch (UTC): 18 October 2017 03:56:46
Eccentricity: 0.0006987
inclination: 100.0931°
perigee height: 1193 km
apogee height: 1204 km
right ascension of ascending node: 311.9851°
argument of perigee: 315.1714°
revolutions per day: 13.16341712
mean anomaly at epoch: 44.8835°
orbit number at epoch: 37680

The dashed part of the orbit path shows where the satellite is in the earth's shadow,  

DLR